Flag for U.S.A. Weather past 2 weeks in Minneapolis, Minnesota, U.S.A.

Now
85 °F

Cloudy.


Feels Like: 91 °F
Forecast: 69 / 86 °F
Wind: 7 mph from South

Location: Minneapolis-St. Paul International Airport

Current Time: Sep 1, 2015 at 6:08:01 PM

Latest Report: Sep 1, 2015 at 4:53 PM


Visibility: 10 mi

Pressure: 29.86 "Hg

Humidity: 65%

Dew point: 72 °F

Location of MinneapolisLocation

Historic Weather in Minneapolis — Graph

°F

Minneapolis temperature yesterday

Maximum temperature yesterday: 85 °F (at 2:53 PM)
Minimum temperature yesterday: 63 °F (at 4:53 AM)
Average temperature yesterday: 75 °F

Past Weeks' High & Low Weather Summary

 TemperatureHumidityPressure
High85 °F (Aug 31, 2:53 PM)97% (Aug 18, 2:01 PM)30.21 "Hg (Aug 18, 2:01 PM)
Low52 °F (Aug 26, 5:53 AM)37% (Aug 20, 3:53 PM)29.46 "Hg (Aug 19, 4:53 AM)
Average67 °F72%29.91 "Hg
* Reported Aug 17 3:53 PM — Sep 1 3:53 PM, Minneapolis, Weather by CustomWeather, © 2015

Note: Actual official high and low records may vary slightly from our data, if they occured in-between our weather recording intervals... More about our weather records

Advertising

Minneapolis weather history for previous 24 hours

 ConditionsComfort  
Time TempWeatherWind HumidityBarometerVisibility
3:53 PM
Tue, Sep 1
84 °FMostly cloudy.6 mph70%29.87 "Hg10 mi
2:53 PM84 °FCloudy.5 mph67%29.87 "Hg10 mi
1:53 PM83 °FPartly sunny.8 mph65%29.87 "Hg8 mi
12:53 PM84 °FBroken clouds.7 mph63%29.88 "Hg10 mi
11:53 AM82 °FPartly sunny.6 mph67%29.89 "Hg8 mi
10:53 AM80 °FScattered clouds.8 mph69%29.90 "Hg8 mi
9:53 AM78 °FPartly sunny.3 mph71%29.90 "Hg9 mi
8:53 AM76 °FPartly sunny.6 mph72%29.90 "Hg9 mi
7:53 AM71 °FBroken clouds.5 mph84%29.91 "Hg9 mi
6:53 AM70 °FFog.6 mph87%29.90 "Hg5 mi
5:53 AM70 °FFog.No wind87%29.90 "Hg6 mi
4:53 AM73 °FPassing clouds.7 mph79%29.88 "Hg7 mi
3:53 AM74 °FPassing clouds.5 mph79%29.89 "Hg7 mi
2:53 AM74 °FPassing clouds.5 mph82%29.88 "Hg7 mi
1:53 AM74 °FPassing clouds.6 mph85%29.89 "Hg6 mi
12:53 AM76 °FPartly cloudy.7 mph82%29.90 "Hg6 mi
11:53 PM
Mon, Aug 31
77 °FPassing clouds.3 mph79%29.89 "Hg7 mi
9:53 PM79 °FPartly cloudy.7 mph74%29.89 "Hg8 mi
8:53 PM80 °FPartly cloudy.7 mph71%29.88 "Hg8 mi
7:53 PM82 °FScattered clouds.7 mph67%29.87 "Hg8 mi
6:53 PM83 °FScattered clouds.12 mph63%29.87 "Hg8 mi
Weather by CustomWeather, © 2015

See weather overviewHow to use our weather pages